Location: ??
(35.1714°N, 128.2806°E)
Time: 14:29:32
(UTC+00:00)

Meteor 1-31 Rocket - Pass Details

Date: 29 October 2020
Orbit: 521 x 546 km, 97.6° (Epoch: 30 November)

Event Time Altitude Azimuth Distance (km) Brightness Sun altitude
Rises 20:03:39 0° 14° (NNE) 2,719 6.5 -21.5°
Reaches altitude 10° 20:05:48 10° 17° (NNE) 1,820 5.6 -21.0°
Maximum altitude 20:09:43 69° 101° (E) 585 3.0 -20.2°
Drops below altitude 10° 20:13:35 10° 185° (S) 1,799 5.4 -19.4°
Sets 20:15:42 0° 188° (S) 2,683 6.3 -19.0°
